Regional Weather Roundup
Issued by NWS Newport/Morehead, NC

Current Version | Previous Version | Graphics & Text | Print | Product List | Glossary On
Versions: 1 2 3 4 5 6 7 8 9 10 11 12 13 14 15 16 17 18 19 20 21 22 23 24 25 26 27 28 29 30 31 32 33 34 35 36 37 38 39 40 41 42 43 44 45 46 47 48 49 50
000 ASUS42 KMHX 080524 RWRMHX WEATHER ROUNDUP FOR EASTERN NORTH CAROLINA NATIONAL WEATHER SERVICE NEWPORT/MOREHEAD CITY NC 1200 AM EST THU DEC 08 2016 NOTE: "FAIR" INDICATES FEW OR NO CLOUDS BELOW 12,000 FEET WITH NO SIGNIFICANT WEATHER AND/OR OBSTRUCTIONS TO VISIBILITY NCZ015>017-031-032-045>047-102-103-080600- NORTH COAST CITY SKY/WX TMP DP RH WIND PRES REMARKS EDENTON PTCLDY 44 42 93 CALM 30.10F ELIZABETH CITY FOG 39 38 96 SW3 30.09S VSB 3/4 KITTY HAWK CLEAR 46 44 92 CALM 30.07S MANTEO CLEAR 40 40 100 CALM 30.09R $$ NCZ045>047-081-094-103-104-080600- CENTRAL COAST CITY SKY/WX TMP DP RH WIND PRES REMARKS FRISCO NOT AVBL $$ NCZ095-097-098-100-101-080600- SOUTHERN COAST CITY SKY/WX TMP DP RH WIND PRES REMARKS BEAUFORT CLEAR 45 43 93 NE5 30.09S CEDAR ISLAND NOT AVBL JACKSONVILLE CLEAR 44 44 100 CALM 30.08F PINEY ISLAND CLEAR N/A N/A N/A NE5 30.08F WILMINGTON CLEAR 44 44 100 CALM 30.08F $$ NCZ011>013-027>030-043-044-078>080-089-090>093-098-080600- COASTAL PLAIN CITY SKY/WX TMP DP RH WIND PRES REMARKS AHOSKIE CLOUDY 43 42 95 CALM 30.09F CLINTON CLOUDY 49 48 96 CALM 30.07F ELIZABETHTOWN MOCLDY 47 47 100 SE5 30.07F GOLDSBORO CLOUDY 48 47 99 SE5 30.06F GREENVILLE CLOUDY 45 43 93 E3 30.10F HAVELOCK CLEAR 42 41 96 CALM 30.10S KENANSVILLE NOT AVBL KINSTON CLOUDY 44 44 99 CALM 30.09F NEW BERN PTCLDY 42 40 92 NE3 30.10S FOG RICHLANDS CLOUDY 47 46 97 CALM 30.09F ROCKY MOUNT CLOUDY 44 44 100 CALM 30.08F WASHINGTON MOCLDY 40 39 97 CALM 30.10F WHITEVILLE PTCLDY 44 43 97 CALM 30.07F $$ AMZ130-135-150-152-154-156-158-170-250-252-270-ANZ085-086-088-633-658-670-080600- MARINE OBSERVATIONS STATION/POSITION TIME TEMP WIND PRES WAVE SWELL AIR SEA DIR/SP/G HT/PER HT/PER (UTC) (F) (DEG/KT/KT) (MB) (FT/S) (FT/S) CHESAPEAKE LIGHT NOT AVBL 64 E VA BEACH 0350 53 58 350/ 12/ 14 1018.0 7/ 9 7/ 9 DUCK 0500 51 54 30/ 4/ 5 1017.9 2 E DUCK NOT AVBL OREGON INLET 0500 300/ 4/ 5 1018.5 13E OREGON INLT NOT AVBL HATTERAS CG 0500 52 60 340/ 4/ 5 1018.2 DIAMOND BUOY 0350 54 78 10/ 6/ 10 1018.6 6/11 7/11 CAPE LOOKOUT 0400 55 60/ 6/ 7 1018.3 BEAUFORT LAB 0500 48 55 10/ 4/ 5 1017.6 30 SE NEW RVR IN 0508 58 71 140/ 2/ 4 1018.2 30 SE NEW RVR IN NOT AVBL 27 SE WRIGHTSVLE 0508 60 69 330/ 4/ 8 1017.8 5 SE WRIGHTSVLE 0508 54 62 290/ 6/ 10 1017.8 225 S CAPE HAT 0350 70 74 300/ 6/ 8 1018.0 6/ 7 7/ 7 41 SE CHARLESTON 0350 62 74 250/ 8/ 12 1018.4 2/ 7 2/ 7 $$

USA.gov is the U.S. government's official web portal to all federal, state and local government web resources and services.